Regional Weather Roundup
Issued by NWS

Home | Current Version | Previous Version | Text Only | Print | Product List | Glossary On
Versions: 1 2 3 4 5 6 7 8 9 10 11 12 13 14 15 16 17 18 19 20 21 22 23 24 25 26 27 28 29 30 31 32 33 34 35 36 37 38 39 40 41 42 43 44 45 46 47 48 49 50
000
ASUS44 KJAN 040710
RWRMS

MISSISSIPPI HOURLY WEATHER ROUNDUP
NATIONAL WEATHER SERVICE JACKSON MS
200 AM CDT SAT JUL 04 2015

NOTE: "FAIR: INDICATES FEW OR NO CLOUDS BELOW 12,000 FEET WITH NO
SIGNIFICANT WEATHER AND/OR OBSTRUCTIONS TO VISIBILITY.

MSZ001>002-007>008-010>013-018>021-025>028-034>036-040800-
NORTHWEST MISSISSIPPI

CITY           SKY/WX    TMP DP  RH WIND       PRES   REMARKS
CLARKSDALE     CLOUDY    72  72 100 SE7       29.91F
CLEVELAND      CLOUDY    72  72 100 S5        29.89F
GREENWOOD      TSTM      72  68  87 SW7       29.91F
GREENVILLE     MOCLDY    73  71  93 S8        29.90F
OLIVE BRANCH     N/A     70 N/A N/A SW6       29.92F
TUNICA         HVY RAIN  70  68  94 CALM      29.92F
$$

MSZ003>006-009-014>017-022>024-029>033-037>039-040800-
NORTHEAST MISSISSIPPI

CITY           SKY/WX    TMP DP  RH WIND       PRES   REMARKS
COLUMBUS AFB   RAIN      72  70  94 S5        29.93F
CORINTH        CLOUDY    72  68  88 CALM      29.93S
GOLDN TRIANGLE CLOUDY    70  66  88 S13G18    29.95F
STARKVILLE     FAIR      68  66  94 CALM      29.94F
TUPELO         TSTM      70  67  90 S6        29.95S
$$

MSZ040-058-040800-
CENTRAL MISSISSIPPI

CITY           SKY/WX    TMP DP  RH WIND       PRES   REMARKS
JACKSON INTL   CLOUDY    80  74  81 S10       29.97F
JACKSON HAWKNS MOCLDY    81  73  76 SW13      29.97F
MERIDIAN KEY   MOCLDY    75  73  93 S7        29.99F
MERIDIAN NAS   MOCLDY    73  70  90 SE3       29.98F
VICKSBURG      PTCLDY    81  73  76 VRB6      29.95F
$$

MSZ059>079-040800-
SOUTH MISSISSIPPI

CITY           SKY/WX    TMP DP  RH WIND       PRES   REMARKS
BROOKHAVEN       N/A     79  75  89 SW8       30.03S
HATTIESBURG    MOCLDY    78  73  84 S6        30.02F
MCCOMB         FOG       77  75  93 SW5       30.03S VSB 1/4
NATCHEZ        CLOUDY    79  73  83 S6        30.01S
PINE BELT      MOCLDY    77 N/A N/A S3        30.03S
$$

MSZ080>082-040800-
COASTAL MISSISSIPPI

CITY           SKY/WX    TMP DP  RH WIND       PRES   REMARKS
BILOXI         PTCLDY    82  78  87 SW10      30.02F HX  91
PASCAGOULA     PTCLDY    81  76  84 SW6       30.03F
GULFPORT       PTCLDY    83  75  77 VRB3      30.03S HX  90
$$



USA.gov is the U.S. government's official web portal to all federal, state and local government web resources and services.